| time (UTC) | temp F | wind direction | speed MPH | gust MPH | rain 1hr in | rain 24hr in | rain mn in | humidity % | barometer mb |
| 20260506080119 | 49 | 228 | 0.0 | 0.0 | 0.03 | 0.58 | 0.25 | 96 | 1010.7 |
| 20260506073118 | 48 | 228 | 0.0 | 0.0 | 0.06 | 0.57 | 0.24 | 96 | 1010.9 |
| 20260506071616 | 48 | 228 | 0.0 | 0.0 | 0.09 | 0.56 | 0.23 | 96 | 1010.9 |
| 20260506060121 | 47 | 228 | 0.0 | 0.0 | 0.09 | 0.43 | 0.09 | 96 | 1011.2 |
| 20260506050115 | 46 | 228 | 0.0 | 0.0 | 0.00 | 0.33 | 0.00 | 96 | 1010.6 |
| 20260506043114 | 45 | 228 | 0.0 | 0.0 | 0.00 | 0.33 | 0.00 | 96 | 1010.5 |
| 20260506041628 | 45 | 228 | 0.0 | 0.0 | 0.00 | 0.33 | 0.00 | 96 | 1010.3 |
| 20260506034619 | 45 | 228 | 0.0 | 0.0 | 0.00 | 0.33 | 0.00 | 96 | 1010.9 |
| 20260506031619 | 45 | 228 | 0.0 | 0.0 | 0.00 | 0.33 | 0.00 | 96 | 1011.4 |
| 20260506030116 | 45 | 228 | 0.0 | 0.0 | 0.00 | 0.33 | 0.00 | 96 | 1011.5 |
| 20260506024615 | 45 | 228 | 0.0 | 0.0 | 0.00 | 0.33 | 0.00 | 96 | 1011.6 |
| 20260506021612 | 46 | 228 | 0.0 | 0.0 | 0.00 | 0.33 | 0.00 | 96 | 1011.6 |
| 20260506014620 | 47 | 228 | 0.0 | 0.0 | 0.00 | 0.33 | 0.00 | 96 | 1011.7 |
| 20260506011618 | 47 | 228 | 0.0 | 0.0 | 0.00 | 0.33 | 0.00 | 96 | 1012.2 |
| 20260506010117 | 48 | 228 | 0.0 | 0.0 | 0.00 | 0.33 | 0.00 | 96 | 1012.3 |
| 20260506003115 | 48 | 228 | 0.0 | 0.0 | 0.00 | 0.33 | 0.00 | 96 | 1012.4 |
| 20260506001611 | 48 | 228 | 0.0 | 0.0 | 0.00 | 0.33 | 0.00 | 96 | 1012.5 |
| 20260505234615 | 48 | 228 | 0.0 | 0.0 | 0.00 | 0.33 | 0.00 | 96 | 1012.4 |
| 20260505233124 | 48 | 228 | 0.0 | 0.0 | 0.00 | 0.33 | 0.00 | 96 | 1012.6 |
| 20260505231608 | 48 | 228 | 0.0 | 0.0 | 0.00 | 0.33 | 0.00 | 96 | 1012.7 |
| 20260505224614 | 48 | 228 | 0.0 | 0.0 | 0.00 | 0.33 | 0.00 | 95 | 1012.7 |
| 20260505223111 | 48 | 228 | 0.0 | 0.0 | 0.00 | 0.33 | 0.00 | 95 | 1013.0 |
| 20260505220141 | 48 | 228 | 0.0 | 0.0 | 0.00 | 0.33 | 0.00 | 95 | 1013.0 |
| 20260505214616 | 48 | 228 | 0.0 | 0.0 | 0.00 | 0.33 | 0.33 | 95 | 1013.1 |
| 20260505211615 | 48 | 228 | 0.0 | 0.0 | 0.00 | 0.33 | 0.33 | 95 | 1013.3 |
| 20260505210114 | 48 | 228 | 0.0 | 0.0 | 0.00 | 0.33 | 0.33 | 95 | 1013.4 |
| 20260505203114 | 48 | 228 | 0.0 | 0.0 | 0.01 | 0.33 | 0.33 | 95 | 1013.4 |
| 20260505201609 | 48 | 228 | 0.0 | 0.0 | 0.01 | 0.33 | 0.33 | 95 | 1013.7 |
| 20260505194620 | 49 | 228 | 0.0 | 0.0 | 0.00 | 0.32 | 0.32 | 95 | 1013.4 |
| 20260505191615 | 49 | 228 | 0.0 | 0.0 | 0.00 | 0.32 | 0.32 | 94 | 1013.2 |
| 20260505184612 | 49 | 228 | 0.0 | 0.0 | 0.01 | 0.32 | 0.32 | 94 | 1013.1 |
| 20260505181614 | 49 | 228 | 0.0 | 0.0 | 0.01 | 0.32 | 0.32 | 94 | 1012.6 |
| 20260505174614 | 49 | 228 | 0.0 | 0.0 | 0.00 | 0.31 | 0.31 | 94 | 1012.6 |
| 20260505171617 | 49 | 228 | 0.0 | 0.0 | 0.00 | 0.31 | 0.31 | 93 | 1012.5 |
| 20260505164634 | 49 | 251 | 0.0 | 0.0 | 0.01 | 0.31 | 0.31 | 93 | 1012.5 |
| 20260505161621 | 49 | 251 | 0.0 | 0.0 | 0.02 | 0.31 | 0.31 | 93 | 1012.8 |
| 20260505151614 | 48 | 255 | 0.0 | 0.0 | 0.00 | 0.30 | 0.30 | 93 | 1012.8 |
| 20260505140120 | 48 | 243 | 0.0 | 0.0 | 0.02 | 0.30 | 0.30 | 94 | 1012.9 |
| 20260505130112 | 49 | 249 | 0.0 | 0.0 | 0.03 | 0.28 | 0.28 | 92 | 1013.1 |
| 20260505124612 | 49 | 249 | 0.0 | 0.0 | 0.02 | 0.28 | 0.28 | 92 | 1013.0 |
| 20260505121643 | 49 | 249 | 0.0 | 0.0 | 0.01 | 0.26 | 0.26 | 92 | 1013.2 |
| 20260505114640 | 49 | 233 | 0.0 | 0.0 | 0.01 | 0.25 | 0.25 | 92 | 1013.2 |
| 20260505111615 | 48 | 243 | 0.0 | 0.0 | 0.07 | 0.25 | 0.25 | 92 | 1013.1 |
| 20260505110114 | 48 | 243 | 0.0 | 0.0 | 0.13 | 0.25 | 0.25 | 92 | 1013.1 |
| 20260505101638 | 48 | 243 | 0.0 | 0.0 | 0.15 | 0.17 | 0.17 | 92 | 1013.2 |
| 20260505094636 | 50 | 243 | 0.0 | 0.0 | 0.08 | 0.08 | 0.08 | 90 | 1013.1 |
| 20260505091634 | 50 | 243 | 0.0 | 0.0 | 0.02 | 0.02 | 0.02 | 88 | 1013.2 |
| 20260505084633 | 50 | 243 | 0.0 | 0.0 | 0.00 | 0.00 | 0.00 | 86 | 1013.3 |
| 20260505081633 | 50 | 250 | 0.0 | 0.0 | 0.00 | 0.00 | 0.00 | 85 | 1013.2 |